Location: Cactus School
(34.5700°N, 118.0931°W)
Time: 00:37:18
(UTC-08:00)

Tiros 1 - Pass Details

Date: 30 November 2019
Orbit: 630 x 664 km, 48.4° (Epoch: 08 December)

Event Time Altitude Azimuth Distance (km) Brightness Sun altitude
Rises 09:57:23 0° 253° (WSW) 2,930 10.4 28.6°
Reaches altitude 10° 09:59:50 10° 261° (W) 2,018 9.6 28.8°
Maximum altitude 10:04:11 39° 330° (NNW) 950 7.9 29.2°
Drops below altitude 10° 10:08:32 10° 40° (NE) 2,011 9.5 29.6°
Sets 10:10:59 0° 48° (NE) 2,918 10.4 29.8°
